Theta_e
302 303 302 301 301 301 302 302 303 303 304 301 298 300 297 298 297 312 313 311 307 299 291 293 290 290 293 297 296 298 295 294 295 294 295 292 294 294 296 294 292 295 293 293 292 293 290 294 293 296 297 298 299 302 304 305 303 301 296 300 300 308 287 286 289 293 295 298 300 301 302 301 298 299 299 298 293 294 289 288 290 283 286 282 282 282 287
302 302 301 301 301 301 302 303 303 304 304 301 300 297 297 301 301 304 311 311 305 295 284 284 285 291 295 296 296 298 295 294 293 293 294 294 293 293 295 294 295 294 295 293 291 294 283 295 295 293 298 295 303 304 303 305 300 301 299 295 302 288 290 287 282 282 283 287 292 293 298 298 295 294 296 298 298 299 298 294 290 282 287 286 282 279 283
301 302 301 301 301 301 302 303 303 304 304 304 299 294 299 301 305 304 306 309 306 294 296 294 287 293 294 295 295 297 297 296 295 296 295 296 295 293 294 295 295 293 294 294 294 295 292 290 297 298 298 298 303 304 305 306 301 305 307 310 307 292 290 287 281 279 276 276 278 281 283 289 293 298 297 297 297 295 289 282 283 281 286 289 283 284 292
301 301 301 300 301 301 302 303 303 304 304 305 300 296 297 298 287 298 301 304 304 302 303 299 296 292 293 288 294 297 294 295 296 296 295 297 296 294 298 296 296 293 293 292 292 291 295 291 294 295 294 298 301 304 304 305 304 306 309 309 303 293 296 293 288 283 281 283 288 293 294 293 289 294 296 296 297 297 294 287 282 281 284 283 288 291 292
301 301 300 300 301 302 302 303 303 304 304 305 300 299 297 302 292 290 288 299 300 298 298 298 298 291 296 284 295 292 294 296 297 297 292 296 295 295 295 294 293 292 291 291 290 293 292 295 293 295 295 298 298 302 304 304 306 309 307 309 300 294 288 293 294 293 291 294 295 297 296 293 294 293 293 296 295 295 293 285 285 292 285 282 288 295 292
301 300 300 301 301 301 302 303 303 304 304 305 302 296 301 291 294 300 303 293 286 289 289 297 296 299 297 292 296 294 294 294 287 294 295 296 296 291 293 294 294 293 291 293 286 291 291 293 289 296 297 296 298 296 301 302 306 307 303 306 301 294 285 293 295 292 297 297 296 297 295 294 294 295 294 293 294 294 291 292 294 290 282 283 290 294 291
300 300 300 301 301 301 302 303 303 304 303 304 299 295 304 301 299 300 303 292 297 295 296 299 297 295 295 291 295 293 295 294 294 294 293 294 294 295 282 289 292 293 294 292 288 291 284 283 294 293 293 296 293 292 297 299 301 303 301 304 301 295 287 293 294 292 294 295 296 296 292 291 292 292 294 294 293 292 293 293 295 294 292 293 292 291 290
300 299 300 301 301 301 302 302 303 303 303 303 299 298 298 298 296 294 301 301 297 299 298 298 296 292 295 285 293 296 294 293 293 295 294 286 294 296 292 293 293 294 293 293 290 293 294 293 286 294 294 293 294 291 291 292 297 300 298 301 302 295 287 296 296 289 291 294 295 293 292 290 288 290 292 292 292 291 291 292 292 294 293 293 292 290 288
300 300 300 300 301 301 302 302 303 303 303 300 299 301 306 306 307 306 297 293 294 298 297 295 293 287 290 287 293 295 293 293 295 294 297 295 293 295 292 293 293 294 294 294 294 297 297 298 297 298 295 285 297 289 293 298 290 297 294 297 298 297 287 296 294 284 285 293 291 290 289 288 287 287 288 290 289 286 288 287 291 290 287 291 290 287 286
300 300 300 300 300 301 301 302 303 303 303 299 301 300 309 309 309 307 302 291 296 292 295 295 292 284 290 294 294 295 293 295 295 285 293 296 296 298 295 296 292 292 293 291 294 296 296 295 296 295 297 297 296 296 299 298 295 295 296 298 291 293 289 286 286 282 283 291 292 290 290 287 284 283 287 291 290 289 289 290 291 290 291 287 284 285 290
299 299 300 300 301 301 302 302 303 303 302 298 298 299 302 303 301 304 303 290 287 290 292 291 290 293 297 296 294 296 296 294 295 286 284 294 296 296 296 295 291 288 292 295 299 298 298 297 297 297 296 296 296 295 295 297 297 296 296 295 294 294 292 286 290 281 283 290 291 292 284 278 278 290 293 293 289 288 286 286 288 290 292 288 290 289 292
299 299 300 300 301 301 302 302 303 303 303 302 301 299 303 304 305 304 293 287 285 296 292 288 290 295 296 294 294 293 292 293 294 297 293 295 296 296 296 296 291 283 297 300 298 298 299 300 298 295 295 295 295 297 297 295 296 297 296 295 291 291 289 285 289 282 283 286 287 282 275 277 289 293 294 294 292 291 288 288 289 290 292 292 290 291 290
299 299 300 300 301 301 302 302 303 303 304 303 301 297 302 306 302 301 296 292 287 291 287 291 296 296 294 295 294 295 293 293 295 296 297 296 294 296 297 294 294 296 300 296 298 296 292 292 292 292 293 293 294 294 294 297 297 299 298 298 293 285 285 285 283 283 283 281 281 276 277 287 292 291 293 296 295 293 290 286 289 290 290 291 289 290 291
299 299 299 300 301 301 302 302 303 303 304 304 300 300 302 302 301 301 297 290 289 294 295 292 293 293 294 294 294 293 293 294 293 293 293 297 294 296 298 297 297 298 297 298 296 293 287 289 283 287 287 290 289 289 293 296 297 297 297 297 298 296 291 287 283 284 279 280 281 281 286 286 287 288 289 290 287 289 287 281 284 290 291 291 290 290 291
299 299 299 300 301 301 302 302 303 303 304 305 302 301 301 303 304 304 303 298 288 291 294 286 291 293 296 294 295 291 290 291 289 286 293 298 296 298 300 297 298 298 298 293 290 291 284 284 280 280 281 281 277 280 292 289 295 297 297 297 295 292 286 288 284 281 284 282 279 280 280 278 281 288 293 296 296 295 294 288 284 291 292 293 292 290 291
299 299 300 300 301 301 302 303 303 304 304 305 303 301 303 306 307 307 301 296 292 284 290 297 296 296 293 292 294 292 288 285 288 288 290 293 294 295 297 298 298 299 297 295 292 287 284 281 279 279 279 281 286 284 280 289 287 294 295 296 297 295 295 290 283 283 282 280 280 280 279 279 286 288 292 295 296 297 295 288 281 289 291 292 292 291 292
299 299 300 300 301 302 302 303 303 304 304 305 301 301 301 309 307 305 300 299 297 285 295 297 299 296 291 288 290 289 292 286 290 283 284 287 293 294 295 298 298 297 296 293 291 286 284 283 281 282 281 281 279 281 283 285 281 283 292 293 292 289 284 284 283 280 281 281 281 277 281 280 285 289 293 296 299 296 291 280 279 287 290 291 292 290 290
299 299 300 300 301 302 303 303 304 305 305 306 303 301 302 308 309 308 303 300 292 288 293 298 296 291 289 291 289 294 296 294 292 293 288 292 293 292 293 296 294 297 299 288 290 283 283 283 281 280 280 289 285 286 278 285 280 281 280 281 281 281 281 283 281 281 282 282 279 282 282 285 288 290 294 296 297 294 282 278 282 289 290 291 291 290 290
298 299 300 300 301 302 303 304 305 305 306 306 305 304 304 307 310 309 304 301 295 283 293 298 300 297 297 299 296 296 295 295 294 286 285 284 290 294 297 297 298 287 294 286 290 283 282 282 288 286 281 283 289 281 287 281 280 287 285 279 281 281 281 282 283 281 280 279 279 279 282 287 291 294 295 295 290 282 279 286 292 290 289 291 291 289 290
298 299 300 300 301 302 303 304 305 305 306 306 304 301 304 308 311 308 305 299 294 290 294 296 298 296 298 295 291 291 293 293 294 290 287 285 295 297 290 286 293 295 289 291 282 287 282 281 282 288 282 282 285 289 284 285 289 285 285 285 281 280 281 280 279 280 283 282 280 279 276 285 293 293 292 293 285 284 289 291 291 292 291 290 290 291 290
299 299 300 300 301 303 303 304 305 306 306 306 305 302 303 310 309 312 312 307 297 286 289 298 298 297 298 297 297 297 296 292 293 291 294 294 297 291 282 283 289 291 285 287 282 283 285 282 286 285 288 287 285 287 281 281 285 289 289 284 283 286 280 280 280 282 280 279 277 276 283 287 294 292 284 289 291 293 293 291 289 292 291 290 290 291 291
299 299 300 301 302 303 303 304 305 306 306 306 306 304 303 307 310 312 307 304 292 287 292 298 298 297 298 300 299 298 299 300 302 302 297 291 298 295 294 296 296 295 295 295 289 285 289 287 291 285 283 285 289 283 287 281 279 285 289 287 280 288 283 284 281 285 281 281 283 287 291 293 295 294 293 294 295 295 294 292 291 290 291 293 291 291 292
299 299 300 301 302 303 303 304 305 305 306 306 305 304 304 305 307 308 305 295 297 298 301 299 299 298 300 300 301 301 302 304 306 304 304 296 289 297 295 296 294 301 299 298 289 289 289 288 284 288 286 287 284 284 286 284 281 284 281 290 287 292 291 292 288 284 290 291 292 294 294 294 294 296 295 294 294 295 294 293 291 292 292 292 291 291 292
299 299 300 301 302 303 304 304 305 305 306 306 305 303 305 306 307 308 301 301 292 288 291 295 292 285 293 295 299 300 301 301 305 307 307 304 288 290 298 301 301 300 297 299 300 291 288 291 289 290 285 289 290 283 281 281 283 288 287 286 289 292 293 290 285 289 286 281 290 290 291 293 293 293 294 295 295 294 294 293 293 293 293 293 293 293 293
299 299 300 301 302 303 304 304 305 305 306 306 306 308 311 307 308 307 302 287 289 287 283 285 288 298 298 301 300 298 299 303 306 308 308 307 301 296 295 301 305 298 296 299 300 295 289 286 289 286 283 290 292 283 288 285 285 291 284 286 288 287 296 288 288 287 284 284 290 292 293 293 293 293 292 292 293 294 294 294 294 294 294 294 294 294 293
299 299 300 301 302 303 304 304 305 305 305 306 307 305 307 305 307 308 305 302 297 291 283 284 291 301 299 298 297 300 303 303 303 307 308 305 306 305 302 304 307 307 303 302 301 290 288 287 288 286 285 286 293 284 283 287 288 291 287 286 291 290 293 283 287 284 287 290 291 291 292 292 292 292 292 293 293 293 293 293 294 294 293 293 294 294 293
299 299 300 301 302 303 304 304 305 305 305 306 305 308 309 307 307 305 304 302 294 284 286 284 290 295 298 297 299 301 303 302 303 303 304 304 305 305 304 301 298 297 298 297 296 288 288 286 286 286 289 288 291 289 289 287 287 285 286 290 293 289 285 288 286 283 283 284 286 289 284 284 289 291 292 293 294 294 293 293 293 293 292 292 291 291 292
299 300 300 301 302 303 304 304 304 305 305 306 308 310 310 308 308 308 308 305 300 285 284 285 287 292 297 296 300 300 301 300 301 302 301 301 302 302 299 297 297 296 295 289 286 286 285 284 287 287 287 290 288 286 290 290 290 287 287 289 291 288 288 286 283 284 283 289 291 291 290 289 291 292 293 294 294 294 293 292 292 293 293 293 292 291 291
299 300 300 301 302 303 303 304 304 304 305 305 308 310 308 310 309 308 308 311 306 302 288 290 293 293 287 294 301 298 302 303 301 300 300 299 301 300 299 298 295 295 294 290 287 286 285 286 287 286 287 294 288 285 287 283 284 283 287 291 292 293 294 291 290 290 290 292 292 292 290 288 291 293 294 294 295 294 293 293 294 293 293 293 292 292 290
299 300 300 301 302 303 303 304 305 304 305 306 307 304 295 297 307 305 305 310 308 305 287 285 282 286 298 299 298 299 300 302 301 302 299 297 296 295 296 295 294 297 295 289 287 284 287 286 286 292 294 295 287 284 281 282 283 286 291 291 292 293 293 293 293 290 289 293 293 293 293 293 294 294 294 294 294 293 293 294 293 293 293 294 293 292 292
300 300 301 301 302 303 303 304 304 304 304 306 304 291 288 286 299 307 304 307 310 305 289 287 285 291 289 296 297 296 299 299 299 298 298 298 297 296 297 296 295 294 285 287 285 287 286 285 285 287 292 292 287 283 282 281 281 284 290 292 291 292 292 292 293 294 293 293 293 293 292 291 291 290 290 290 291 291 290 291 294 295 294 293 292 292 292
300 300 301 301 302 303 303 304 304 303 302 304 299 296 298 300 303 303 303 306 310 303 287 284 284 284 285 289 299 299 298 300 302 301 297 300 295 297 295 296 292 297 291 286 287 286 285 286 285 287 288 292 289 284 283 281 281 283 289 290 292 292 292 292 292 293 293 293 292 290 289 289 289 287 287 289 290 291 290 290 291 292 293 291 291 290 290
300 300 301 301 302 303 304 304 304 302 299 302 304 303 303 304 303 303 306 310 306 298 295 285 282 283 284 290 298 300 301 299 297 297 293 297 294 295 291 296 296 294 301 289 285 283 289 285 285 285 289 291 284 284 284 281 284 288 290 291 291 292 292 292 292 292 292 292 291 286 285 287 288 290 290 290 291 291 290 291 291 291 291 290 290 290 290
300 300 301 301 302 303 303 304 304 304 305 305 303 305 308 304 303 304 308 309 303 300 291 285 283 283 283 293 291 296 299 293 291 294 285 297 298 294 289 293 292 285 291 286 288 286 287 286 284 285 288 284 284 282 280 283 288 289 290 291 291 291 291 291 291 292 292 292 292 292 291 291 292 293 293 293 293 293 294 293 293 292 291 291 291 291 291
300 300 301 302 302 304 304 304 304 306 304 306 305 306 307 304 303 303 312 304 292 285 286 287 286 282 282 284 282 290 301 296 288 293 286 292 300 292 293 285 287 284 286 296 285 284 283 285 289 282 281 285 282 280 281 285 287 288 289 289 290 290 290 289 289 291 292 292 292 292 293 293 292 291 292 292 293 293 293 293 293 292 292 292 291 291 291
300 301 301 302 303 303 303 306 304 304 302 301 302 307 305 305 308 312 310 310 303 293 286 285 285 283 284 280 281 285 299 292 294 295 293 290 292 297 294 287 283 287 293 287 283 287 283 291 285 281 285 281 280 282 284 288 288 288 288 288 289 289 289 290 290 291 292 293 294 295 295 294 292 291 292 293 293 292 292 291 292 292 291 291 291 291 290
300 301 302 302 303 303 300 297 306 305 302 304 306 304 305 307 311 308 307 306 308 303 294 287 285 286 289 283 286 286 293 282 291 288 290 286 284 287 288 284 282 286 285 284 284 283 288 293 284 281 281 280 281 288 289 289 289 288 288 289 290 290 291 291 291 291 291 293 295 294 293 291 290 291 292 292 291 291 290 289 290 290 289 289 290 290 291
301 302 300 300 301 291 291 293 302 309 306 306 304 303 298 300 289 290 292 289 297 299 290 295 285 290 291 287 282 291 291 286 292 283 284 288 284 284 287 284 283 285 281 283 286 294 287 284 282 281 281 286 288 290 290 290 290 290 290 290 290 290 291 291 292 292 290 288 289 290 290 290 290 291 291 290 290 289 288 289 290 290 291 290 290 291 291
300 299 301 301 298 289 290 299 307 302 306 306 308 293 288 291 289 285 286 288 288 286 289 291 286 291 289 287 288 295 293 285 284 286 282 288 284 281 284 281 283 284 281 282 284 293 281 282 282 281 280 284 286 288 290 290 290 290 291 291 291 290 291 291 291 291 289 288 288 289 289 289 290 290 291 290 289 290 290 291 290 290 291 291 290 290 291
300 299 293 294 292 294 304 303 302 304 304 293 292 290 285 289 285 282 288 284 284 286 288 285 293 293 292 289 287 288 295 291 281 281 283 285 291 282 284 283 285 283 278 279 281 291 281 278 281 280 280 283 285 288 290 290 290 290 291 291 291 291 291 291 291 291 290 290 290 290 291 290 290 290 290 289 289 288 289 290 290 291 290 291 290 291 291
301 300 299 291 298 302 303 304 305 303 295 289 287 287 285 282 286 286 285 283 283 285 290 292 293 291 292 293 291 287 294 297 295 292 286 282 290 288 282 280 285 280 279 279 283 284 283 281 280 279 280 284 287 289 290 290 290 289 290 291 291 290 290 290 291 291 291 291 291 291 291 291 291 291 291 290 290 288 288 290 290 290 290 290 290 291 292
297 296 297 300 299 301 303 299 295 290 287 288 283 281 284 284 286 285 285 282 283 286 289 291 286 288 288 292 291 292 289 296 291 286 284 281 285 284 281 283 284 279 276 282 284 284 282 278 278 279 283 288 289 290 290 289 289 289 290 291 291 290 290 291 290 291 292 292 291 291 290 291 290 290 289 290 290 290 290 290 290 290 289 290 291 291 292
301 301 299 298 296 291 292 287 289 287 280 280 279 279 282 280 282 282 283 287 289 289 288 298 293 295 294 296 292 294 289 294 287 285 284 282 286 286 282 281 280 277 280 285 283 281 279 278 278 281 286 288 290 290 290 290 290 290 290 291 290 291 291 291 290 290 291 292 291 290 290 290 291 292 292 292 290 290 291 290 290 290 291 291 292 292 292
301 303 299 293 288 288 289 279 287 284 281 282 280 277 279 279 281 283 282 284 287 287 292 290 290 290 285 291 287 287 288 291 289 286 284 286 284 280 280 278 279 282 286 282 281 278 279 280 282 285 288 290 291 290 290 290 290 290 290 290 291 291 290 290 290 290 291 291 291 291 291 290 290 292 292 291 291 290 290 290 291 291 291 291 291 291 292
294 290 289 286 283 286 284 274 284 282 277 279 283 281 281 279 281 282 282 286 292 289 292 292 291 292 288 292 289 289 287 284 288 283 280 284 280 281 279 279 283 283 280 278 280 280 280 279 284 287 289 289 289 290 291 291 291 290 290 290 291 291 292 291 291 291 290 290 290 291 290 290 291 291 291 291 291 292 291 291 291 291 291 291 291 292 291
290 287 285 278 274 280 283 279 280 279 282 284 282 284 284 285 286 287 292 294 292 291 291 291 292 291 286 289 285 283 286 286 283 283 284 284 279 278 283 285 284 280 279 280 277 275 277 282 284 287 289 289 290 291 291 291 292 291 291 290 290 291 291 291 291 291 291 291 290 290 290 291 291 291 291 291 290 292 291 292 291 292 292 291 291 292 292
291 288 287 284 279 282 285 279 280 282 285 286 287 288 289 290 292 292 293 293 292 292 293 294 292 291 286 286 285 286 287 286 282 284 285 279 279 282 286 281 277 278 275 274 276 278 281 284 286 288 289 290 290 291 291 291 291 291 291 290 289 290 290 290 291 290 290 291 290 291 291 291 291 291 291 291 290 291 292 292 293 292 292 293 293 293 292
285 288 286 277 275 281 280 282 288 288 289 291 291 293 294 294 292 291 294 294 294 294 292 291 286 287 286 289 289 284 285 285 282 282 284 282 283 280 278 277 278 280 280 278 278 281 284 286 288 289 290 291 291 291 291 291 291 291 291 291 291 291 290 290 291 293 293 292 291 291 290 290 290 289 289 289 291 292 293 292 292 293 293 293 293 293 293
291 286 283 282 283 283 283 286 288 285 289 290 292 293 294 293 291 292 294 295 294 294 293 291 286 286 283 286 284 283 281 284 280 279 283 281 277 273 274 273 275 275 280 282 282 283 287 289 290 290 291 291 290 291 291 291 291 292 292 291 291 291 291 291 292 291 291 291 292 290 290 291 290 290 290 291 291 291 293 294 294 293 293 293 292 292 293
287 285 286 285 284 284 287 287 287 285 288 290 290 289 291 291 291 292 296 295 294 292 291 289 289 286 284 284 281 282 281 283 282 283 280 277 278 279 278 275 277 277 280 282 283 288 290 291 291 290 291 291 291 292 291 291 291 292 293 293 293 292 292 292 291 291 291 293 292 292 292 291 289 288 290 289 291 292 292 292 293 292 292 293 293 291 292
289 287 286 290 284 283 286 282 282 284 285 287 288 289 290 290 291 293 297 297 296 289 286 284 284 284 283 281 280 278 280 284 281 280 279 278 281 279 277 276 278 282 284 287 288 289 290 291 290 290 290 291 291 292 292 292 292 292 293 292 292 292 292 292 292 292 291 290 291 290 290 290 291 291 291 291 290 290 290 290 292 292 292 293 293 293 292
286 283 283 286 290 289 289 289 290 289 289 291 291 292 293 291 293 295 298 294 290 285 284 286 285 283 280 279 281 283 284 283 281 280 279 281 283 280 279 280 282 283 286 288 288 289 289 290 291 290 290 291 291 292 292 292 292 291 291 292 292 292 292 292 292 291 291 291 291 292 292 291 291 290 291 290 291 290 289 291 293 292 292 292 293 294 293
Wind_Speed
11 13 12 11 10 11 11 12 14 13 13 7 6 5 3 3 2 6 9 5 10 5 2 4 4 5 6 10 14 3 4 3 4 3 2 2 1 1 0 2 3 2 0 4 6 7 3 6 4 2 2 4 6 6 11 10 10 3 4 5 7 6 2 2 2 3 5 7 8 10 14 9 11 11 8 8 5 1 3 2 2 2 2 4 1 4 1
10 12 12 10 10 11 11 12 13 14 11 6 6 3 3 2 1 4 5 5 7 3 3 3 6 5 8 10 7 5 6 3 1 2 2 1 1 1 1 3 1 1 7 4 3 6 3 5 8 4 4 3 7 8 10 9 5 6 2 2 5 2 3 3 2 1 5 8 7 7 8 10 6 4 5 6 3 3 0 2 4 4 3 4 6 3 1
11 12 11 10 10 11 11 12 13 13 13 8 4 3 4 2 0 1 5 4 3 4 2 2 1 2 4 3 3 2 1 2 5 1 7 1 2 3 3 3 3 2 3 3 2 3 2 3 6 8 4 2 3 8 9 6 4 5 4 1 1 5 0 3 2 1 2 1 1 3 5 6 3 6 9 10 10 7 4 2 2 4 5 7 5 3 3
11 11 10 10 10 10 11 13 12 13 12 9 3 2 3 0 0 0 2 2 2 4 4 3 3 3 4 2 2 1 3 2 4 6 7 7 5 3 2 2 1 3 6 4 3 3 2 1 2 2 2 1 2 6 6 6 2 3 7 6 3 2 3 4 4 4 5 3 3 1 2 1 5 6 11 9 9 8 5 5 5 3 1 7 2 7 8
11 10 10 9 10 11 10 12 12 11 11 9 3 3 3 2 1 2 1 1 3 4 3 4 2 3 3 1 1 2 3 3 0 6 2 4 3 3 2 2 0 1 3 2 5 6 7 13 2 5 6 3 2 4 4 6 7 7 5 8 3 4 6 5 3 4 5 6 4 2 7 7 7 7 5 10 10 5 10 5 3 0 4 5 1 9 9
11 10 10 10 10 10 11 11 11 10 9 9 2 2 3 1 3 2 2 1 3 1 5 6 6 9 10 2 0 2 2 2 1 4 3 4 1 1 2 2 2 3 7 4 1 3 4 11 5 8 6 4 7 4 7 2 4 9 7 9 4 3 3 4 6 2 3 4 5 10 10 11 10 11 10 10 9 12 10 7 3 2 1 7 3 7 10
10 10 9 10 10 10 11 11 10 10 10 7 2 2 1 1 2 2 3 1 1 8 10 6 9 8 6 1 0 4 2 2 3 1 1 2 1 0 1 6 6 8 9 3 2 2 1 3 3 3 3 2 2 3 4 8 10 10 6 2 1 3 1 2 6 4 2 5 4 10 14 11 15 12 11 11 11 10 11 11 10 11 11 11 12 13 13
10 8 9 9 10 10 11 12 11 10 12 6 3 4 1 1 3 3 3 1 5 9 8 4 4 1 3 1 1 1 2 1 4 1 1 0 1 1 1 4 4 5 4 7 3 4 5 5 3 2 2 1 2 1 1 0 4 4 4 5 1 1 2 3 5 2 6 11 13 13 13 14 13 12 12 10 8 11 11 11 11 8 9 9 11 12 11
9 9 9 9 10 10 11 12 11 10 9 3 4 2 3 2 0 0 3 5 5 8 5 2 1 2 0 1 3 2 6 3 4 7 2 2 1 3 6 11 10 10 9 12 6 3 8 5 2 1 1 5 1 2 1 4 1 0 2 1 2 2 2 2 1 4 4 7 12 11 12 16 15 12 12 10 8 8 8 9 6 5 4 5 10 8 6
9 9 9 9 10 10 11 12 12 10 9 3 3 3 2 2 3 2 1 3 8 4 4 2 2 2 2 3 0 1 4 3 6 2 4 2 4 1 7 3 7 5 8 8 4 5 8 7 5 3 5 1 1 1 5 8 4 3 3 1 2 1 4 1 3 3 2 6 11 10 7 4 6 8 9 6 9 10 8 10 12 11 4 5 5 4 4
9 9 9 9 10 11 11 12 12 11 7 4 3 4 3 1 3 2 2 2 5 4 3 4 3 1 0 5 4 2 5 6 4 2 1 3 2 5 6 2 3 2 4 1 4 6 5 5 5 5 6 5 5 3 4 3 0 2 4 1 0 1 2 0 2 2 4 8 7 4 2 4 1 3 7 4 5 9 12 8 11 12 9 6 5 6 6
9 9 9 10 11 11 11 12 11 9 6 4 4 6 5 4 5 5 3 1 6 1 4 4 3 2 2 6 4 4 7 8 5 5 3 1 2 7 5 3 6 1 2 3 5 5 5 3 3 4 4 6 7 8 7 3 1 5 3 4 4 3 1 1 1 4 4 6 9 4 3 1 2 2 5 8 12 15 16 13 13 11 9 8 8 7 7
9 9 9 11 11 12 12 12 11 10 7 4 4 6 5 5 5 4 3 0 3 2 2 3 4 3 7 5 4 4 8 7 6 6 3 3 4 4 2 3 3 1 1 7 8 3 2 3 4 6 7 7 7 7 6 1 8 10 8 9 4 2 1 1 0 2 2 3 0 3 2 4 5 4 5 2 5 6 7 12 12 11 10 7 7 7 7
9 9 10 11 12 12 13 13 13 11 10 6 5 7 7 6 3 3 2 3 5 6 6 5 11 8 5 4 4 3 3 4 4 4 4 3 4 2 3 3 5 2 6 2 0 1 1 1 1 0 2 4 3 3 4 10 8 10 8 6 6 1 1 3 1 1 5 3 5 6 6 4 5 2 4 3 1 3 2 6 7 9 7 7 5 5 4
10 10 10 11 12 13 14 14 13 12 11 9 6 8 7 6 6 4 2 1 2 6 4 4 3 6 3 3 2 2 4 4 3 1 1 2 1 3 2 7 4 6 3 3 1 1 2 1 2 0 1 1 2 2 2 3 2 6 4 4 3 2 3 1 3 1 6 7 6 3 2 2 2 1 3 1 1 1 2 5 4 6 8 7 4 5 4
10 10 11 12 13 14 15 15 14 14 12 11 6 6 9 9 7 7 3 1 2 3 3 4 5 2 1 2 1 1 0 5 5 4 1 3 3 4 2 8 5 2 0 0 2 0 1 2 1 2 1 1 2 2 2 1 2 3 2 4 2 3 4 5 4 2 4 3 5 2 2 2 1 4 5 7 2 2 1 1 4 3 6 6 6 6 6
10 11 12 13 14 15 16 16 16 15 13 11 6 5 7 7 3 2 2 2 1 1 4 5 3 2 2 3 3 2 3 1 1 3 1 3 6 7 5 3 2 2 1 0 2 1 1 1 2 2 1 1 1 1 1 1 1 1 3 5 9 7 4 4 1 2 3 4 4 3 2 2 0 6 7 7 2 0 2 1 0 3 5 6 5 6 6
11 12 13 14 15 16 17 17 16 16 14 10 5 5 7 7 7 1 1 2 1 3 4 6 7 6 4 0 2 0 2 3 3 0 2 4 2 6 3 3 1 1 1 3 1 2 3 3 3 1 1 1 3 1 1 1 2 1 0 1 2 4 4 3 3 3 7 9 3 3 2 1 1 5 8 4 4 1 1 2 1 2 5 6 6 7 7
11 12 13 15 16 17 17 16 16 16 14 12 7 5 8 9 8 3 2 2 1 1 1 1 1 6 8 7 6 4 3 3 3 2 5 3 2 2 10 5 4 1 2 2 1 1 1 1 1 1 1 0 1 2 1 3 2 2 4 3 4 5 1 2 5 6 4 3 5 3 3 1 5 7 5 2 1 3 4 2 4 7 7 7 8 8 8
12 13 14 15 16 17 17 16 16 16 14 13 6 4 9 8 6 3 1 2 2 4 5 7 6 10 7 8 7 6 7 8 5 4 3 1 5 4 6 4 6 3 5 3 1 1 3 1 1 0 2 2 1 1 4 6 7 5 2 2 3 2 2 2 2 2 1 3 4 4 1 1 8 8 4 5 2 3 5 7 8 7 7 7 7 7 7
12 13 14 16 16 17 17 16 16 15 14 13 7 5 6 4 5 5 6 3 1 5 5 5 6 8 5 6 5 5 6 5 3 3 2 2 3 3 2 1 1 0 1 1 3 0 1 2 1 2 1 1 2 3 3 2 3 8 4 3 4 3 2 2 1 1 3 3 3 2 0 3 7 5 4 2 6 7 7 7 8 6 5 5 6 7 7
13 13 15 16 17 17 17 17 17 16 15 14 10 3 3 5 3 3 4 6 6 3 2 4 3 4 5 4 6 5 6 5 2 0 1 4 4 4 3 1 0 0 0 1 1 2 4 2 2 2 2 2 2 3 1 4 4 2 6 4 5 8 3 1 6 3 2 3 4 1 0 4 7 10 8 8 8 7 9 8 8 7 5 5 6 7 7
13 14 15 16 17 17 17 17 17 17 15 13 7 1 3 2 3 4 4 6 2 1 0 1 1 3 4 5 4 4 4 3 3 2 2 2 3 2 3 1 1 1 1 1 4 5 3 4 4 3 4 2 3 6 9 5 3 3 4 6 6 1 3 3 10 10 11 11 6 3 5 7 9 9 8 10 10 9 8 8 7 6 6 5 6 6 6
14 15 16 17 17 17 18 18 18 17 16 14 5 2 3 1 6 5 2 2 1 2 5 7 4 4 3 5 3 3 3 2 1 1 2 3 3 2 3 2 1 2 2 0 0 4 3 1 5 2 6 2 2 4 5 6 4 3 4 3 2 2 3 3 7 7 1 7 3 9 10 10 12 12 11 10 9 9 8 8 7 7 7 7 7 7 7
14 15 17 18 18 18 18 18 18 18 17 15 13 5 7 2 4 5 3 1 1 2 3 2 4 1 4 0 3 3 3 2 1 2 1 1 4 4 3 2 3 4 4 3 1 2 1 3 1 2 6 4 2 7 3 6 4 2 6 0 2 5 3 10 6 9 8 6 8 10 11 12 10 9 9 10 11 10 9 7 7 8 7 8 8 8 8
15 16 17 18 19 20 20 19 19 19 17 18 10 3 2 2 3 5 3 1 2 3 3 1 1 3 1 3 5 4 3 2 1 1 2 3 2 3 5 1 1 1 3 2 2 1 3 5 5 3 4 6 4 4 3 2 6 3 6 5 2 5 3 4 3 8 8 10 9 11 12 11 10 8 7 8 8 9 9 9 10 9 9 9 8 7 8
15 16 17 18 19 19 19 20 20 19 19 17 9 6 3 1 6 7 2 0 2 4 1 1 2 2 3 5 3 3 3 1 2 3 4 3 3 2 3 2 5 6 5 2 2 5 4 4 5 7 4 4 3 6 5 7 6 5 6 5 4 7 9 7 8 11 6 7 9 8 8 6 7 8 9 9 9 9 9 8 9 8 8 6 6 4 4
16 16 17 18 19 19 18 19 19 19 17 16 8 5 4 5 4 4 3 5 4 2 3 2 3 3 2 5 4 5 6 4 2 3 5 7 7 6 10 10 8 6 4 6 6 5 4 6 6 2 3 4 6 7 4 5 6 8 7 4 3 8 10 6 4 5 7 8 8 6 8 9 9 10 9 10 9 9 9 9 10 9 8 7 7 7 5
15 16 17 18 18 19 18 18 18 18 19 13 6 6 3 4 6 6 6 3 2 0 4 2 2 3 3 1 1 3 1 2 4 5 4 5 6 8 8 7 6 5 6 5 4 4 4 3 1 3 2 1 4 5 5 9 8 9 8 9 9 6 9 12 12 13 12 11 10 6 5 7 8 10 10 9 8 9 9 8 9 10 10 8 7 7 8
15 16 17 18 18 19 19 17 18 18 16 6 2 1 1 2 5 7 7 5 3 1 3 2 3 1 2 2 3 3 5 7 7 7 7 8 9 9 8 7 7 6 5 4 3 5 1 2 3 4 6 8 5 2 5 3 6 8 10 12 12 11 11 9 7 8 8 7 8 7 8 7 6 6 7 7 5 6 7 8 8 8 8 8 8 7 6
16 16 17 18 18 18 18 17 17 17 14 3 1 1 1 1 1 5 9 6 3 2 1 3 3 0 3 3 2 5 6 6 6 6 8 6 5 4 4 5 5 4 5 3 3 4 2 4 3 4 4 6 3 4 5 4 6 5 7 9 9 10 12 12 10 9 9 8 8 7 7 8 6 6 6 5 6 7 7 5 4 6 7 6 7 7 6
16 17 17 18 18 18 17 16 15 13 6 4 2 1 0 1 2 8 10 6 4 2 3 4 1 1 0 2 0 2 4 3 3 2 3 3 6 7 9 7 5 5 4 4 3 3 4 4 5 4 6 5 6 5 6 5 7 7 8 11 8 9 8 9 8 8 8 7 8 8 6 4 6 7 5 5 6 6 7 7 6 8 8 7 7 7 6
16 17 17 18 18 18 17 15 15 9 3 6 8 7 8 10 11 11 7 5 1 0 2 2 2 1 1 0 2 4 3 2 4 0 4 1 4 1 4 3 4 5 7 6 3 3 1 3 3 7 5 3 4 3 4 5 6 7 9 9 8 8 8 6 7 7 8 7 4 5 5 5 5 6 7 6 5 6 5 6 6 5 5 6 5 5 4
16 17 18 18 18 18 17 14 15 12 7 1 2 1 1 6 6 9 5 1 0 2 1 2 1 1 0 3 1 1 1 1 4 1 4 2 2 3 3 2 4 4 3 5 2 4 4 4 6 5 4 6 3 3 5 5 6 8 8 8 8 7 6 5 5 5 6 6 5 6 7 6 4 5 4 3 3 4 7 6 5 6 6 4 5 5 5
17 18 18 19 18 16 16 11 5 1 1 3 1 1 3 8 6 8 2 2 3 1 1 1 2 3 1 0 1 1 1 1 3 1 4 1 1 3 2 2 0 4 4 1 3 2 3 1 2 5 5 3 4 4 3 6 7 7 6 6 6 10 9 8 6 7 7 7 7 7 7 6 7 5 5 3 3 5 5 4 4 4 3 2 4 3 2
18 19 19 20 20 12 5 2 2 2 1 0 0 2 6 8 6 2 1 1 2 0 1 2 2 3 2 3 2 1 1 3 2 1 1 1 1 1 2 2 4 2 1 2 4 3 4 4 2 5 1 2 2 3 6 7 7 5 5 5 4 4 7 8 7 7 7 8 8 6 7 6 7 7 5 5 4 4 4 3 2 5 4 4 3 1 2
18 19 21 16 6 0 1 1 0 1 1 2 6 9 10 5 2 1 0 1 0 2 1 1 0 2 3 3 0 1 1 3 1 3 0 2 2 0 3 2 4 0 3 3 2 3 2 2 5 4 3 4 4 5 6 7 8 7 6 6 7 8 7 9 7 6 6 7 8 5 4 6 6 5 5 6 6 6 5 4 2 2 3 2 2 3 3
19 17 5 2 1 1 0 1 0 1 4 5 6 2 3 5 1 1 0 1 0 1 1 0 1 1 2 5 2 1 1 1 0 2 1 0 2 1 1 2 1 1 4 1 1 0 3 3 3 5 4 4 6 7 8 8 7 6 5 6 7 8 8 3 5 8 6 3 2 3 7 7 5 3 6 6 6 5 4 3 3 5 5 4 3 1 0
8 3 2 1 0 1 0 2 1 5 3 2 0 1 1 0 0 0 1 0 1 1 1 2 3 3 4 5 1 1 1 2 2 1 1 2 2 1 1 2 2 2 1 2 1 2 3 2 2 3 4 2 5 4 6 8 6 5 5 5 5 5 5 8 9 9 8 7 7 7 6 4 4 6 6 4 3 4 2 2 4 4 5 5 4 4 5
2 1 1 1 0 0 1 2 2 2 1 0 0 1 0 0 1 0 0 0 0 1 1 2 2 2 4 6 4 0 2 1 4 3 2 1 1 2 1 2 0 1 2 1 2 0 3 4 1 3 3 3 5 5 7 6 6 4 5 5 5 5 4 5 5 5 7 7 6 5 5 4 4 6 6 5 4 3 2 1 4 5 4 5 4 4 2
1 3 2 2 3 1 1 1 0 1 0 0 1 1 0 1 1 1 0 1 0 0 1 1 1 4 3 4 2 1 1 1 1 2 3 2 2 1 2 0 0 1 1 1 1 2 2 3 3 4 5 5 6 6 8 6 6 5 4 3 5 6 7 7 7 4 5 6 5 6 6 6 6 6 5 5 5 5 3 4 4 4 5 4 4 2 1
2 2 3 5 6 7 0 0 0 0 0 0 1 0 0 1 1 0 1 1 1 0 2 2 2 3 3 1 2 2 1 1 0 1 2 1 1 1 1 1 0 1 1 1 2 2 2 2 3 4 5 7 7 8 7 6 5 5 4 5 6 5 4 4 5 6 6 7 4 4 4 4 5 4 5 3 1 3 5 5 4 3 4 5 2 1 1
15 10 5 3 2 0 0 0 1 0 1 1 2 1 1 1 1 1 0 1 0 1 1 1 2 0 2 2 4 3 1 1 2 1 2 0 1 0 1 0 0 1 1 1 1 2 3 3 3 5 7 8 9 7 8 9 7 5 3 4 5 6 6 6 5 5 4 6 7 5 4 3 4 3 1 1 4 3 3 4 5 4 3 2 0 0 3
6 3 2 1 0 1 0 0 1 2 2 0 1 1 1 1 1 0 0 1 0 1 1 3 2 1 3 1 2 0 2 2 1 1 2 0 1 1 0 1 0 1 1 1 0 3 3 1 5 10 9 9 6 7 9 8 6 6 6 5 4 4 5 5 4 4 5 5 4 2 1 2 2 1 2 3 3 3 3 3 4 5 5 5 5 1 3
2 1 0 1 1 0 1 2 3 0 1 1 1 2 2 3 3 4 4 3 1 4 4 3 3 2 5 1 2 2 1 0 1 1 0 0 2 0 0 2 1 0 0 1 0 1 2 2 3 9 10 8 6 10 9 9 8 7 6 4 3 4 3 5 4 4 5 5 3 1 3 2 1 0 2 2 3 3 1 2 4 4 4 3 2 5 2
1 1 1 3 3 2 0 1 1 1 1 1 2 4 4 6 4 3 2 2 4 5 4 5 3 6 4 1 2 2 0 1 1 0 0 0 1 0 1 0 1 1 0 0 1 2 5 7 7 9 9 8 9 10 9 8 8 7 7 6 4 5 5 4 4 3 4 5 4 3 1 2 1 2 1 3 2 0 2 4 3 4 3 3 4 2 3
2 1 1 0 1 1 1 1 3 3 2 3 5 5 7 5 2 4 3 4 6 4 5 3 4 5 5 0 1 1 0 1 1 0 1 1 1 0 1 0 0 0 1 1 1 2 6 7 9 10 8 9 11 9 10 9 9 7 7 6 5 4 5 3 3 3 4 4 3 1 1 2 3 4 3 4 3 2 2 5 5 4 3 1 1 2 2
1 0 0 1 2 1 2 3 3 3 6 4 4 2 3 5 4 3 4 4 5 7 8 6 5 3 1 2 2 2 1 1 2 2 0 1 0 1 1 1 0 0 1 2 2 4 9 7 9 8 8 10 11 9 10 10 8 8 8 6 5 6 5 5 2 1 3 3 1 1 3 4 5 4 2 3 5 5 5 2 2 3 2 1 1 1 1
2 1 1 1 1 1 3 5 3 5 6 4 3 2 3 4 7 5 5 3 4 4 6 6 4 1 1 0 1 2 2 0 1 1 0 1 1 1 1 1 1 1 1 1 1 8 11 10 9 8 9 9 7 8 9 8 8 11 9 7 6 7 6 5 3 5 4 2 1 2 4 2 2 1 3 3 3 1 1 0 0 1 2 2 4 1 0
1 1 1 1 1 3 5 5 4 2 2 2 3 3 3 7 6 3 2 3 5 5 5 5 3 1 2 1 1 1 1 0 1 0 1 1 1 0 1 1 1 2 2 1 4 10 9 10 9 7 7 9 8 9 10 8 8 8 6 6 6 6 5 5 6 4 2 1 2 1 0 0 0 2 2 4 2 1 1 1 0 1 3 4 4 3 2
0 1 1 2 2 2 1 2 3 1 1 1 1 4 6 5 3 2 2 2 4 5 2 1 1 1 1 1 1 1 0 1 2 1 2 2 1 1 1 2 2 0 2 6 7 8 9 8 7 8 8 8 8 9 9 8 8 8 6 6 5 4 5 5 5 5 4 3 3 5 4 2 1 2 4 2 2 2 2 3 2 3 3 2 1 0 1
0 1 2 2 5 6 7 7 3 4 5 2 2 3 6 5 4 3 1 4 5 2 2 1 1 1 1 1 1 0 1 1 1 1 1 1 1 2 3 5 4 4 7 9 8 8 7 7 7 7 7 8 9 9 8 7 7 5 5 5 6 5 5 5 3 3 4 4 2 0 3 3 2 1 1 1 0 3 4 1 2 3 2 1 0 0 0
Wind_Direction
326 330 328 332 331 332 335 336 336 339 338 335 348 310 221 199 239 284 309 156 150 157 229 218 218 234 252 264 256 240 258 4 43 350 134 236 176 311 335 321 356 11 77 18 13 31 55 46 93 123 56 55 27 360 20 17 36 66 10 356 350 347 54 26 338 338 325 343 13 32 34 37 63 41 31 35 39 5 160 162 217 114 313 65 5 67 155
321 330 330 333 334 333 335 337 338 337 340 331 320 282 264 357 271 325 292 185 180 195 219 217 223 238 260 260 295 349 353 304 43 349 0 252 122 336 334 302 82 299 23 19 12 73 45 72 92 63 37 47 360 37 61 45 22 47 321 76 308 48 321 106 42 5 346 347 352 3 7 44 47 46 6 15 34 22 351 74 26 80 326 198 115 139 207
327 332 332 336 335 333 334 337 336 331 329 337 338 297 337 311 258 159 296 240 202 232 243 299 308 276 264 272 292 307 284 2 10 24 305 118 68 34 358 348 13 14 47 356 339 316 146 116 71 97 52 94 355 67 54 44 65 49 146 156 230 96 295 62 86 146 173 224 75 338 337 337 318 38 16 16 14 353 31 49 5 81 328 31 89 95 131
330 330 334 336 332 333 340 336 336 331 332 337 272 280 277 133 92 267 241 250 197 276 288 291 286 318 299 346 297 308 282 97 359 13 302 27 14 70 344 340 4 344 24 355 5 325 19 100 169 114 104 109 46 78 77 78 53 26 21 5 66 92 62 70 126 139 159 174 193 195 129 8 15 28 23 13 17 19 65 95 75 140 162 67 344 136 125
332 329 337 335 336 340 343 334 331 331 332 348 329 267 255 302 250 130 206 152 250 257 283 259 229 242 229 149 247 236 285 71 45 57 322 37 359 5 340 294 97 131 63 33 1 347 356 352 308 113 116 39 24 348 131 103 104 80 53 344 42 59 57 4 30 120 188 163 139 109 35 56 42 56 17 27 23 28 65 75 173 178 82 75 271 139 115
333 338 337 336 340 344 340 335 332 334 330 338 289 286 204 157 252 310 334 334 220 261 278 225 265 265 257 268 339 255 197 73 59 329 327 6 60 75 320 281 277 228 158 136 143 352 4 40 31 72 58 64 359 29 355 70 146 92 32 357 60 104 89 307 38 51 266 128 135 135 92 60 66 59 54 46 31 34 57 37 40 110 126 164 174 94 99
335 339 334 335 340 340 341 336 336 334 325 330 266 278 83 5 306 262 283 309 261 183 217 218 219 211 197 143 279 276 118 152 122 269 151 275 117 59 70 313 330 320 298 123 138 166 87 9 32 61 85 99 66 34 344 22 38 90 85 309 3 84 80 205 127 259 279 45 57 90 95 74 54 47 62 63 53 48 50 51 42 71 67 77 87 82 73
335 333 332 336 338 337 340 339 342 334 329 314 260 251 310 242 37 320 343 246 302 312 275 241 193 189 42 75 248 268 52 305 115 63 91 339 335 105 220 205 236 316 4 93 81 79 111 140 78 349 93 73 111 127 145 261 348 73 127 172 308 96 223 182 203 196 83 67 77 83 88 82 69 39 39 47 53 53 42 47 27 50 80 81 81 86 77
340 336 332 337 335 337 338 340 345 335 347 276 241 253 205 308 294 273 352 321 271 218 216 176 196 85 28 57 207 186 152 228 212 141 131 97 43 322 43 23 25 355 29 48 59 64 112 113 144 210 97 146 220 120 259 155 199 21 75 32 192 137 220 192 203 105 116 102 99 103 94 86 72 43 27 34 35 42 19 49 12 44 46 92 95 68 72
338 336 340 336 334 336 339 342 346 342 335 270 277 257 37 322 259 221 257 282 265 276 183 156 111 105 228 180 66 1 169 178 71 28 7 63 182 289 75 60 55 349 41 55 40 17 40 37 19 342 326 12 321 133 175 182 167 174 123 165 114 128 146 125 149 88 98 145 133 141 135 73 43 15 351 25 78 97 71 48 36 21 2 59 54 83 52
335 333 334 333 334 338 340 346 350 350 348 352 334 302 310 278 326 327 209 206 280 245 196 182 120 163 231 86 113 306 38 34 92 104 217 359 23 54 94 52 95 35 68 266 351 35 28 30 354 345 347 343 329 329 347 312 171 190 139 70 52 82 75 125 132 116 147 144 144 128 54 74 69 345 341 14 96 89 72 48 38 25 36 79 75 70 68
332 330 332 333 337 339 341 345 348 348 343 324 308 276 256 288 277 245 253 33 279 265 77 85 116 199 229 142 121 43 74 60 43 42 65 347 32 53 46 56 79 54 275 318 31 16 359 331 290 290 292 303 297 286 264 270 107 59 47 137 144 80 69 238 182 105 180 154 128 89 87 106 109 35 33 69 88 84 83 65 44 38 40 77 82 87 88
332 330 334 338 336 338 340 342 342 340 335 314 296 277 300 326 301 279 283 282 274 3 65 165 177 145 90 65 80 95 73 55 45 27 50 12 17 18 58 71 59 121 351 36 15 4 350 287 282 225 223 219 250 255 261 280 48 44 48 45 69 78 117 266 11 121 67 55 3 130 132 136 147 92 40 53 116 117 98 61 44 38 32 43 77 66 89
331 334 335 334 335 336 338 339 337 337 329 323 285 271 283 285 297 315 344 4 317 341 6 44 63 52 41 38 85 86 50 73 62 38 32 9 6 352 31 15 127 123 61 45 10 7 16 280 289 3 263 197 179 208 183 75 50 51 29 29 61 69 34 71 337 68 115 85 51 88 117 101 22 14 7 24 36 355 63 94 42 31 30 31 65 80 65
335 336 334 333 335 336 338 338 335 334 328 320 298 283 270 255 235 259 306 311 320 303 27 49 52 79 58 59 358 35 119 110 82 26 310 84 330 311 75 90 59 60 73 71 336 125 185 140 28 88 328 76 138 207 25 46 50 35 37 10 61 90 105 237 99 14 115 126 98 105 172 150 121 10 310 321 195 219 126 115 97 29 21 10 38 67 79
332 336 336 337 337 338 338 336 335 332 330 325 298 282 270 259 257 262 246 242 334 12 356 36 27 59 135 104 319 12 213 159 176 172 159 167 197 250 117 84 72 74 344 225 217 128 67 85 230 71 29 49 288 29 332 8 9 328 51 1 18 48 106 130 113 159 69 83 112 104 147 90 80 352 318 313 262 233 179 64 69 25 17 15 31 53 47
337 337 339 340 341 339 337 335 334 332 328 329 313 296 282 268 244 280 2 318 179 164 336 37 10 39 8 36 18 355 3 65 56 109 131 244 203 182 100 94 56 92 187 118 337 54 17 355 70 128 199 141 59 106 212 23 54 348 14 36 42 44 355 23 38 56 98 106 76 98 46 139 291 315 312 305 221 103 70 134 42 22 27 16 45 53 42
339 336 340 341 340 339 335 334 332 330 328 320 303 281 269 289 283 263 233 214 278 12 0 32 42 33 13 2 109 315 353 10 349 153 157 202 343 103 183 120 117 91 327 66 13 53 62 46 54 50 81 341 143 45 107 316 58 349 70 58 42 16 341 53 105 93 85 94 102 108 102 74 240 297 296 325 347 112 141 201 76 74 47 38 52 60 57
339 338 339 340 339 336 334 332 331 329 328 325 315 267 247 243 250 213 246 259 132 119 332 53 41 67 16 19 36 4 13 57 351 76 336 357 328 330 85 51 39 21 358 107 62 91 104 12 13 30 110 327 65 53 63 46 323 359 41 27 30 23 345 13 51 37 75 105 88 95 73 232 293 303 310 332 193 145 148 96 93 84 68 64 70 75 72
340 340 338 337 337 335 332 330 329 329 329 330 336 269 275 287 280 216 184 315 10 67 13 27 39 68 50 34 29 26 3 23 4 72 56 312 313 342 55 15 331 56 3 39 51 21 90 68 247 45 21 56 357 87 60 72 41 35 56 60 82 326 31 44 42 305 49 58 109 106 87 32 335 303 317 357 95 100 104 104 80 80 85 81 73 76 75
340 339 338 336 335 333 332 330 329 329 328 326 330 295 311 270 243 244 188 153 79 77 2 19 47 46 58 60 42 51 72 74 8 41 304 264 295 69 89 203 254 24 130 115 117 292 111 103 286 74 230 71 281 45 152 160 62 14 39 94 89 293 129 102 119 266 96 64 74 113 205 273 347 60 95 22 85 125 115 110 97 93 94 93 98 87 96
342 340 337 335 335 334 333 332 330 329 329 327 321 239 250 277 307 331 54 90 89 112 156 57 56 74 65 96 102 76 60 73 71 123 22 3 2 106 154 105 62 74 93 87 30 26 357 100 56 56 76 28 9 79 132 81 47 7 17 35 71 4 67 328 115 338 93 97 102 163 251 88 60 71 80 76 75 85 93 97 106 113 101 102 98 103 99
343 340 337 335 337 336 335 334 331 328 325 325 334 262 282 280 332 346 55 64 25 53 77 124 128 87 104 80 90 104 114 147 142 62 69 104 60 50 107 120 74 58 105 111 137 140 136 90 111 153 90 65 115 83 57 66 99 340 59 351 113 99 78 112 74 70 82 69 71 102 91 88 81 72 78 80 79 76 82 90 98 82 80 74 87 92 94
344 339 338 337 339 338 336 335 331 329 327 325 324 267 285 13 25 5 22 84 119 64 353 1 58 13 31 59 38 100 112 86 80 179 161 131 107 29 7 28 78 50 32 277 144 137 173 120 140 129 110 176 149 72 107 94 85 137 102 54 27 322 353 43 87 158 128 88 132 108 101 87 81 78 78 82 87 91 95 98 93 95 92 88 80 79 82
344 340 340 339 339 339 337 336 332 330 329 326 327 236 230 9 18 58 49 103 348 84 116 321 359 337 74 344 150 113 108 136 137 145 219 65 101 132 143 211 178 138 186 202 45 55 60 102 69 84 110 127 135 94 90 102 117 168 90 110 145 50 106 89 86 96 78 118 137 119 113 107 112 116 110 106 106 106 107 106 110 113 116 112 111 109 99
345 342 342 340 339 340 339 337 335 331 331 329 343 352 346 43 3 20 33 336 115 114 100 82 354 332 119 109 71 60 61 72 126 133 107 95 112 137 155 135 334 1 102 90 75 84 58 40 51 42 78 59 30 107 83 92 139 128 118 173 194 165 215 68 160 99 113 122 123 117 109 103 104 109 111 115 120 121 125 129 131 130 121 122 125 130 127
344 342 341 340 339 339 339 336 335 332 333 335 334 318 260 103 61 52 55 345 62 36 36 104 236 112 68 57 28 92 90 67 41 52 62 63 32 357 30 67 98 80 88 99 107 99 64 75 66 73 45 83 75 72 78 67 73 87 81 87 107 93 91 121 112 111 118 127 128 135 119 129 131 128 139 141 142 141 136 130 119 117 118 122 122 115 128
343 341 339 338 337 337 337 335 332 331 332 328 318 329 330 73 64 65 39 68 95 159 154 109 74 84 320 66 45 32 16 31 55 75 62 47 43 50 68 68 58 46 30 58 42 31 57 76 97 136 91 87 85 67 57 92 78 65 59 78 102 117 144 142 119 111 128 131 122 110 118 119 136 147 148 144 147 142 142 141 140 140 143 146 142 147 153
341 339 337 337 335 335 334 334 331 333 334 337 329 337 343 51 73 44 27 5 81 18 90 79 36 22 66 19 50 111 141 85 55 45 54 65 61 54 55 59 80 91 71 64 80 72 66 59 106 87 114 188 91 92 77 69 61 66 54 54 70 79 98 96 101 102 103 113 118 125 117 125 134 143 151 151 151 143 137 140 141 146 154 160 155 157 160
339 337 336 335 334 332 332 332 332 333 333 323 331 333 21 18 42 38 3 353 2 63 83 88 66 319 323 40 55 76 64 40 38 47 53 60 67 64 63 62 52 56 78 94 99 82 26 88 13 36 56 52 80 126 86 94 84 80 75 68 65 68 71 79 85 97 107 107 105 105 105 103 104 100 99 97 100 121 138 146 153 149 152 155 153 158 166
336 335 334 334 331 329 329 331 332 333 335 320 318 31 63 113 308 7 352 340 338 77 98 84 100 327 18 311 60 49 64 47 45 52 53 43 34 59 64 70 62 68 67 37 42 68 57 46 44 32 33 36 70 77 93 90 93 80 69 78 76 80 87 91 94 95 99 94 93 88 85 92 90 76 62 85 101 96 93 103 116 144 148 152 158 164 170
333 332 332 331 328 325 325 326 327 335 330 359 51 114 170 223 257 307 310 299 304 55 81 95 67 19 155 314 73 152 120 109 81 37 30 16 50 43 55 56 73 47 99 91 77 56 50 52 69 68 73 39 57 77 68 80 98 114 112 93 95 94 93 99 104 106 103 105 105 103 104 107 97 111 130 114 104 104 112 111 112 104 106 107 111 111 125
331 329 329 327 325 322 319 317 317 324 290 283 276 274 269 274 277 277 284 298 29 137 133 85 107 179 87 273 7 2 23 55 76 69 63 30 94 52 67 37 50 44 17 62 10 87 14 76 43 71 68 57 78 89 91 93 111 118 109 115 118 122 128 130 122 122 126 128 114 117 127 126 130 138 142 145 138 133 129 121 128 132 106 100 103 115 89
328 328 325 323 320 319 313 308 305 299 284 258 40 123 202 206 278 281 302 320 220 257 92 104 102 76 67 301 55 277 69 74 98 50 71 351 98 68 76 48 20 79 22 88 50 58 27 56 70 89 44 47 49 70 73 85 112 117 122 129 133 133 130 110 100 99 96 93 104 112 119 121 109 106 111 118 134 154 142 147 143 121 128 126 132 134 140
327 325 323 319 315 308 304 302 325 338 306 275 93 130 325 315 296 272 346 55 39 353 52 29 97 91 71 336 104 224 237 271 98 122 114 217 345 123 134 79 41 79 101 95 55 105 101 95 125 66 100 98 66 87 110 129 114 122 126 127 120 108 100 93 94 98 102 110 116 126 132 128 114 106 94 78 63 66 60 55 75 89 81 107 133 123 104
324 320 319 314 306 295 290 281 227 287 286 294 247 306 303 300 308 310 76 100 134 97 30 147 122 147 159 120 129 247 271 79 120 85 75 154 35 39 94 102 71 38 134 82 108 80 109 171 70 96 68 67 75 128 152 146 140 116 90 82 76 106 123 126 134 128 136 142 141 152 146 135 130 148 159 145 121 85 65 45 73 93 93 68 36 72 70
319 319 313 303 287 225 295 244 194 57 225 260 294 324 300 322 308 336 327 98 39 117 133 13 77 197 142 154 95 295 20 103 296 71 341 71 105 295 61 49 89 295 50 57 53 70 50 76 88 85 52 97 81 77 86 88 97 104 104 96 86 86 106 122 125 129 124 139 151 151 139 133 144 149 135 120 103 91 81 71 34 108 148 176 159 119 124
314 309 306 304 356 1 346 332 320 275 353 323 327 353 5 25 348 315 2 18 255 104 288 82 77 197 95 95 139 267 47 106 31 100 9 102 67 24 79 104 179 83 79 85 19 261 77 36 66 97 79 68 84 77 83 77 73 78 87 89 76 59 38 31 145 141 145 136 96 138 147 148 140 116 109 111 120 126 154 188 124 80 78 75 77 41 125
305 292 258 256 199 269 163 219 6 7 340 299 62 54 21 2 11 343 277 230 52 357 271 130 190 145 94 79 71 356 125 155 92 74 104 301 95 332 19 86 306 72 64 82 338 2 64 32 52 59 70 75 81 72 72 76 65 59 73 76 93 100 91 74 72 87 101 130 129 96 83 89 114 107 112 114 115 122 133 121 118 107 92 78 56 47 40
273 276 257 246 152 267 356 347 356 9 16 50 300 105 176 244 120 321 279 45 334 302 26 3 280 115 127 136 133 32 296 91 128 169 138 57 1 147 237 82 153 88 138 121 225 2 115 124 108 94 117 116 106 108 94 94 90 67 61 73 88 96 98 93 103 116 110 102 92 84 82 81 78 112 114 102 80 67 89 101 114 126 124 109 96 83 42
299 297 325 356 329 337 172 195 72 347 45 13 27 317 70 341 281 149 69 301 120 225 206 206 9 60 56 102 100 120 283 102 239 138 107 104 254 65 60 112 205 92 127 130 262 72 96 87 125 132 186 161 132 116 103 100 101 101 107 110 94 71 64 52 36 47 91 81 71 68 63 58 55 57 66 91 99 91 68 63 84 100 103 127 131 140 216
6 251 295 300 276 270 48 18 286 95 339 323 105 275 205 184 305 35 135 151 179 168 2 356 69 107 118 120 126 113 342 292 104 82 104 70 298 109 167 91 41 125 134 219 147 101 114 141 148 140 171 147 140 134 132 122 111 92 62 70 105 108 100 83 65 49 67 73 69 69 75 76 62 72 85 61 81 122 98 67 68 90 96 56 55 206 177
288 255 187 253 248 279 165 16 286 104 96 1 29 39 342 85 236 154 187 308 302 89 242 250 113 74 54 46 36 31 169 250 71 18 66 162 279 54 89 87 104 89 223 126 99 147 154 164 133 173 161 145 152 147 133 125 126 133 127 81 71 76 82 77 75 71 64 74 65 48 25 40 62 54 137 125 69 48 68 109 104 84 67 95 100 320 103
270 220 187 239 88 355 28 18 301 40 7 131 146 150 235 296 277 346 45 217 261 80 160 125 205 93 102 59 120 288 21 4 10 64 39 16 83 57 66 79 88 256 319 63 170 151 190 118 156 159 149 147 153 138 135 131 127 114 96 98 101 101 107 116 119 106 93 98 106 144 348 69 69 333 28 75 84 97 52 70 84 77 51 35 6 334 115
323 356 123 30 13 310 57 320 305 138 201 214 171 201 172 188 204 206 200 211 130 177 174 119 143 123 100 64 45 17 107 143 311 93 209 74 55 10 114 156 190 62 114 202 199 140 77 84 127 128 144 154 147 137 130 129 130 135 134 117 110 122 133 114 103 116 122 118 132 184 97 99 264 171 113 86 73 89 70 136 125 87 61 12 23 7 333
281 163 76 77 351 310 168 189 172 238 269 140 217 212 193 227 204 194 170 118 127 145 143 148 130 92 87 91 134 198 327 97 65 113 110 70 98 59 294 351 91 117 250 211 172 188 146 156 149 147 157 150 140 135 129 134 126 127 125 143 148 97 75 83 98 81 107 103 81 63 109 222 184 46 58 110 107 93 86 90 100 106 97 40 5 11 310
281 320 141 109 111 238 230 193 215 218 189 196 219 219 222 215 180 149 150 124 144 155 111 95 107 128 129 143 39 21 57 98 110 327 52 69 98 245 332 93 212 156 150 208 203 138 142 162 153 158 151 138 141 138 135 132 135 135 131 127 135 130 108 76 75 73 82 76 88 105 313 38 48 41 33 55 33 10 61 88 85 90 83 75 289 304 329
274 222 69 122 230 186 204 243 225 242 252 229 205 208 125 131 106 85 84 104 113 87 97 85 69 65 37 339 62 156 112 54 71 356 27 130 62 43 19 25 344 255 192 156 227 133 136 147 153 157 142 138 148 139 136 139 149 136 132 140 145 129 126 126 185 188 103 82 58 46 48 53 52 38 28 19 27 38 63 55 98 104 99 47 329 310 293
268 265 192 219 202 175 242 250 231 243 238 183 169 119 108 87 78 84 91 82 81 97 117 121 158 109 89 109 102 60 58 346 92 233 275 47 93 172 151 183 179 230 271 185 179 120 142 145 152 144 135 136 144 126 125 131 133 132 147 147 148 139 142 150 126 87 79 73 355 59 51 35 38 6 14 54 95 34 99 24 141 147 156 201 219 222 273
239 292 345 277 308 274 258 266 266 259 21 48 99 91 80 83 85 40 17 82 90 87 63 50 50 91 170 128 74 71 85 125 117 114 84 117 153 178 102 155 219 186 237 308 101 131 133 138 143 133 127 125 126 116 118 118 111 111 114 117 117 129 140 130 114 113 139 216 96 49 339 210 353 306 168 141 156 183 187 258 272 132 69 51 57 40 19
282 223 239 214 207 255 213 228 229 164 86 307 81 112 106 110 114 88 15 83 71 72 63 135 173 117 74 45 55 110 201 100 82 162 148 175 176 165 184 195 221 225 120 99 100 114 124 133 128 129 125 117 113 114 113 116 116 121 126 123 123 107 102 111 129 151 132 130 169 213 246 257 134 110 94 91 39 356 337 330 336 87 79 55 26 136 318
220 251 253 260 235 244 270 269 259 144 163 188 72 98 96 92 90 89 19 67 72 79 182 223 87 68 64 120 203 118 53 69 134 105 108 253 183 172 200 196 175 159 130 103 103 101 99 104 114 121 121 115 121 120 118 115 105 103 113 126 122 122 121 124 148 154 160 172 155 135 89 113 171 108 59 35 250 275 293 97 97 89 74 78 14 39 244